[[[{"header":{"parameterUnit":"kt","parameterCategory":2,"dx":1,"dy":1,"la1":30.253999710083008,"la2":30.299108505249023,"lo1":-89.0895004272461,"lo2":-89.04439544677734,"nx":28,"ny":28,"refTime":"2022-10-31T21:00:00:Z","depth":0,"parameterNumber":1,"parameterNumberName":"U-component_of_WINDS"},"data":[3.3874,3.3999,3.4027,3.4183,3.4234,3.4345,3.4394,3.446,3.452,3.4656,3.474,3.4782,3.4853,3.496,3.5053,3.507,3.5105,3.5129,3.5144,3.5015,3.4999,3.4983,3.4953,3.5137,3.5137,3.5271,3.5273,3.5274,3.3773,3.3825,3.3916,3.4023,3.4101,3.4095,3.418,3.4246,3.4346,3.4422,3.4506,3.4629,3.4731,3.4797,3.4899,3.4958,3.4961,3.4984,3.4978,3.4989,3.4853,3.4821,3.4979,3.4979,3.4979,3.4979,3.4979,3.4979,3.3596,3.3671,3.3751,3.3851,3.3913,3.3985,3.4061,3.411,3.4201,3.4311,3.4328,3.4443,3.4525,3.4663,3.4718,3.4808,3.4788,3.4822,3.4829,3.4836,3.4839,3.4634,3.4827,3.4827,3.4827,3.4827,3.4826,0,3.3474,3.3492,3.3582,3.368,3.3755,3.3834,3.3912,3.396,3.4009,3.4083,3.4191,3.4258,3.4391,3.4496,3.46,3.465,3.465,3.4656,3.4678,3.4668,3.4645,3.4655,3.4428,3.4649,3.4648,3.4647,3.4646,3.4645,3.3294,3.338,3.3479,3.3538,3.3587,3.3684,3.3747,3.3784,3.385,3.3952,3.4017,3.4123,3.421,3.438,3.4438,3.4539,3.454,3.462,3.4555,3.4542,3.4536,3.4529,3.4536,3.4631,3.4633,3.4634,3.4635,0,3.3189,3.3235,3.3377,3.3467,3.3493,3.358,3.3658,3.3736,3.3776,3.3888,3.3917,3.398,3.4087,3.4133,3.4265,3.4285,3.4429,3.443,3.44,3.4401,3.4475,3.4466,3.4714,3.4747,3.4562,3.4564,3.4565,0,3.3052,3.3164,3.3224,3.3305,3.343,3.3464,3.3587,3.3634,3.3705,3.3794,3.3803,3.3886,3.3932,3.4023,3.4054,3.418,3.4206,3.4228,3.4234,3.4225,3.4222,3.4259,3.4248,3.425,3.4249,3.4248,3.4247,0,3.288,3.3046,3.3176,3.3221,3.3329,3.339,3.3439,3.3519,3.3582,3.367,3.3711,3.3813,3.3868,3.3947,3.3984,3.3938,3.4142,3.4086,3.4164,3.4163,3.4204,3.42,3.4412,3.4245,3.4245,3.4244,3.4244,0,3.2774,3.2862,3.3047,3.3136,3.3178,3.3266,3.3366,3.3452,3.3537,3.3561,3.3632,3.3642,3.376,3.37,3.3861,3.3789,3.3843,3.3875,3.3882,3.3892,3.3823,3.3931,3.4131,3.4152,3.3905,3.3902,3.39,0,3.2563,3.2762,3.2792,3.2967,3.3065,3.3065,3.3164,3.3239,3.3279,3.3368,3.3414,3.3517,3.3482,3.352,3.3595,3.3645,3.374,3.3635,3.3761,3.3765,3.3733,3.3919,3.3935,3.4083,3.3864,3.3868,3.3871,0,3.2404,3.2535,3.2564,3.2616,3.272,3.2803,3.2917,3.3025,3.3082,3.3168,3.3262,3.341,3.3389,3.3453,3.3473,3.3548,3.3677,3.3515,3.3518,3.3539,3.3852,3.3866,3.3891,3.3674,3.3679,3.3682,3.3843,0,3.2228,3.2334,3.2417,3.2533,3.2604,3.2718,3.2765,3.2834,3.2844,3.2884,3.3027,3.3103,3.3216,3.3258,3.327,3.3428,3.3408,3.3385,3.3328,3.3451,3.3504,3.3527,3.3243,3.3242,3.3241,3.324,0,0,3.2012,3.2165,3.2195,3.2306,3.2368,3.2367,3.2484,3.2545,3.2668,3.271,3.2679,3.2897,3.2961,3.3129,3.3171,3.3219,3.325,3.3206,3.3393,3.341,3.3425,3.3482,3.3505,3.3238,3.3237,3.3237,3.3237,0,3.1956,3.2019,3.2135,3.2198,3.2294,3.233,3.2358,3.2453,3.2484,3.2625,3.2623,3.2715,3.289,3.2956,3.3013,3.3188,3.318,3.3219,3.3295,3.338,3.3398,3.3414,3.3474,3.3495,3.3234,3.3234,3.3234,0,3.1805,3.1874,3.1935,3.2077,3.2139,3.2242,3.2193,3.2304,3.238,3.2375,3.2515,3.2564,3.2658,3.2812,3.2884,3.2857,3.3113,3.3043,3.3052,3.306,3.3144,3.3166,3.3186,3.2926,3.2925,3.2924,0,0,3.175,3.185,3.1936,3.2068,3.2108,3.2165,3.2224,3.2241,3.2324,3.2357,3.242,3.2502,3.2603,3.267,3.2769,3.2932,3.2953,3.3003,3.3017,3.3029,3.3043,3.3131,3.3153,3.2919,3.2919,3.2918,0,0,3.1724,3.1828,3.1823,3.1983,3.2061,3.2155,3.2235,3.2232,3.2325,3.2317,3.2352,3.2375,3.2521,3.257,3.2499,3.2748,3.2692,3.271,3.2711,3.273,3.2744,3.2728,3.246,0,0,0,0,0,3.169,3.1814,3.1809,3.1843,3.2023,3.2158,3.2181,3.2212,3.2169,3.2231,3.2283,3.2272,3.2538,3.2476,3.251,3.2588,3.2856,3.2867,3.2878,3.2918,3.2937,3.2953,0,0,0,0,0,0,3.1704,3.1745,3.1806,3.1904,3.1945,3.2154,3.2088,3.21,3.2163,3.2159,3.2262,3.2275,3.2305,3.2461,3.2491,3.2565,3.245,3.286,3.287,3.2878,3.2924,3.294,3.2954,0,0,0,0,0,3.1715,3.1748,3.2029,3.1903,3.1939,3.2008,3.2084,3.2093,3.2143,3.2223,3.2236,3.216,3.2306,3.2333,3.2479,3.255,3.2429,3.244,3.2866,3.2874,3.2881,3.2932,0,0,0,0,0,0,3.1723,3.1758,3.2036,3.2048,3.1858,3.1997,3.202,3.2087,3.2204,3.2217,3.2122,3.2117,3.2308,3.2329,3.235,3.2543,3.2413,3.2424,3.2431,3.2872,3.2878,3.2883,0,0,0,0,0,0,3.174,3.1768,3.2043,3.1984,3.199,3.1987,3.2007,3.2137,3.2205,3.2096,3.2095,3.2118,3.2277,3.2327,3.2343,3.2544,3.24,3.2411,3.2418,3.2423,3.2877,3.2881,0,0,0,0,0,0,3.1752,3.1776,3.1981,3.1985,3.199,3.2127,3.2102,3.2286,3.2153,3.2091,3.2142,3.2137,3.2276,3.2293,3.2339,3.2533,3.2541,3.24,3.2408,3.2413,3.2416,0,0,0,0,0,0,0,3.1762,3.1595,3.1965,3.1987,3.199,3.2159,3.2162,3.2165,3.2152,3.2148,3.2143,3.2139,3.2339,3.235,3.2362,3.2523,0,0,3.2399,3.2404,0,0,0,0,0,0,0,0,3.1586,3.1593,3.1966,3.1968,3.1971,3.2159,3.2162,3.2165,3.2151,3.2148,3.2144,3.2141,3.2342,3.2351,3.2361,0,0,0,0,0,0,0,0,0,0,0,0,0,0,0,3.1966,3.1968,0,3.216,3.2162,3.2164,3.2151,3.2148,3.2145,3.2142,3.2344,3.2352,3.236,0,0,0,0,0,0,0,0,0,0,0,0,0,0,0,0,0,0,0,0,0,0,0,0,0,0,0,0,0,0,0,0,0,0,0,0,0,0,0,0,0,0,0,0,0,0,0,0,0,0,0,0,0,0,0,0,0,0,0,0,0,0,0,0,0,0,0,0,0]}],[{"header":{"parameterUnit":"kt","parameterCategory":2,"dx":1,"dy":1,"la1":30.253999710083008,"la2":30.299108505249023,"lo1":-89.0895004272461,"lo2":-89.04439544677734,"nx":28,"ny":28,"refTime":"2022-10-31T21:00:00:Z","depth":0,"parameterNumber":2,"parameterNumberName":"V-component_of_WINDS"},"data":[4.0197,4.0159,4.0137,4.0081,4.0051,4.0008,3.9985,3.9951,3.9918,3.986,3.9821,3.9792,3.9747,3.9691,3.9645,3.9632,3.9613,3.9614,3.9598,3.9617,3.9618,3.9618,3.9627,3.9611,3.9611,3.9581,3.9581,3.9581,4.0207,4.0179,4.0144,4.0095,4.0064,4.0049,4.0007,3.9981,3.9941,3.9901,3.9863,3.9808,3.976,3.9714,3.9663,3.9638,3.9626,3.9626,3.9626,3.9618,3.9638,3.9648,3.9636,3.9636,3.9636,3.9636,3.9636,3.9636,4.0218,4.0197,4.0156,4.0118,4.0087,4.0054,4.0027,3.9995,3.9958,3.9907,3.9886,3.9839,3.9792,3.972,3.9689,3.9648,3.9644,3.9635,3.9632,3.963,3.963,3.967,3.9639,3.9639,3.9638,3.9638,3.9638,0,4.022,4.0204,4.0171,4.013,4.0101,4.0066,4.0031,4.0013,3.9969,3.994,3.9896,3.9866,3.9804,3.9756,3.9704,3.9673,3.9651,3.9648,3.9641,3.9649,3.9662,3.9651,3.9682,3.9649,3.9649,3.9649,3.9649,3.9649,4.0228,4.0207,4.0154,4.0133,4.011,4.0076,4.005,4.0014,3.9988,3.9936,3.9916,3.987,3.9831,3.976,3.9718,3.9671,3.9659,3.9649,3.9652,3.966,3.9655,3.9656,3.9652,3.9648,3.9648,3.9648,3.9648,0,4.0234,4.0201,4.0161,4.0111,4.0098,4.0075,4.0031,4.0006,3.9977,3.9938,3.9927,3.988,3.9835,3.9796,3.9736,3.9716,3.9669,3.9661,3.9684,3.968,3.9664,3.9665,3.9625,3.9617,3.9636,3.9636,3.9636,0,4.0227,4.02,4.0152,4.013,4.0098,4.0064,4.0031,4.0003,3.9966,3.9935,3.9908,3.9878,3.9833,3.9797,3.9767,3.9723,3.9712,3.9693,3.9685,3.9695,3.9697,3.9677,3.9677,3.9673,3.9673,3.9673,3.9673,0,4.0238,4.0183,4.0148,4.0129,4.0074,4.0057,4.0033,3.9992,3.9967,3.9928,3.9911,3.9867,3.9843,3.9808,3.9771,3.9774,3.9717,3.9714,3.9697,3.9697,3.9685,3.9686,3.9663,3.9674,3.9674,3.9674,3.9674,0,4.0228,4.0195,4.015,4.0103,4.0089,4.0066,4.0023,3.9995,3.9953,3.9934,3.9903,3.988,3.9842,3.9841,3.9785,3.9799,3.9775,3.9754,3.9752,3.9745,3.9745,3.9734,3.9718,3.9713,3.9739,3.9739,3.974,0,4.0248,4.0196,4.0168,4.0126,4.0097,4.0069,4.0042,4.0007,3.9981,3.9949,3.9918,3.9882,3.9874,3.9857,3.9835,3.98,3.9781,3.9802,3.9749,3.9747,3.9759,3.9745,3.9752,3.9726,3.9746,3.9746,3.9745,0,4.0261,4.0198,4.0193,4.017,4.0123,4.0098,4.0068,4.0026,4.0007,3.9972,3.9943,3.9892,3.9882,3.9856,3.9833,3.9811,3.9793,3.9804,3.9802,3.9801,3.9748,3.9754,3.975,3.9781,3.978,3.9779,3.975,0,4.0247,4.0219,4.0205,4.0159,4.0135,4.0108,4.0072,4.0051,4.0032,4.0006,3.9963,3.9925,3.9881,3.9868,3.9849,3.9815,3.9814,3.9805,3.9801,3.9793,3.9782,3.9778,3.982,3.9819,3.9819,3.9819,0,0,4.0274,4.0233,4.0205,4.0177,4.0155,4.0128,4.0102,4.0077,4.0027,4.001,4.0008,3.9932,3.9901,3.9853,3.9848,3.9831,3.9819,3.9825,3.9797,3.9795,3.9793,3.9782,3.9779,3.9818,3.9818,3.9818,3.9818,0,4.0262,4.0238,4.0216,4.0189,4.0149,4.0124,4.0119,4.0074,4.0056,4.0017,3.9993,3.9963,3.9905,3.9874,3.9851,3.983,3.9812,3.982,3.9821,3.9796,3.9794,3.9792,3.9782,3.9779,3.9817,3.9817,3.9817,0,4.0267,4.0236,4.0223,4.0175,4.0148,4.012,4.0107,4.0078,4.0055,4.0025,3.9987,3.9961,3.9918,3.9879,3.986,3.9857,3.9807,3.9818,3.9819,3.9815,3.9789,3.9787,3.9785,3.9809,3.9809,3.9809,0,0,4.0261,4.0236,4.0192,4.017,4.0155,4.0118,4.0099,4.008,4.0045,4.0031,3.9997,3.9961,3.9926,3.9904,3.987,3.9833,3.9819,3.9819,3.9819,3.9819,3.9816,3.9791,3.9789,3.981,3.981,3.981,0,0,4.0258,4.0208,4.0197,4.0167,4.0136,4.0089,4.0075,4.006,4.0026,4.0025,3.9988,3.9977,3.9941,3.9916,3.9927,3.9866,3.9863,3.986,3.9884,3.9884,3.9885,3.989,3.9907,0,0,0,0,0,4.0229,4.0214,4.0205,4.0195,4.0134,4.0095,4.0086,4.0058,4.0056,4.0045,4.0014,3.9998,3.9914,3.9923,3.9912,3.9899,3.9816,3.9815,3.9814,3.9837,3.9837,3.9838,0,0,0,0,0,0,4.0225,4.0213,4.0205,4.0159,4.0145,4.0095,4.0085,4.0076,4.0056,4.0054,4.0004,3.9996,3.9969,3.9926,3.9917,3.9906,3.991,3.9816,3.9815,3.9814,3.9837,3.9837,3.9838,0,0,0,0,0,4.0222,4.0212,4.0124,4.0159,4.0147,4.0105,4.0085,4.0078,4.0061,4.0015,4.0006,4.0042,3.9969,3.9959,3.992,3.9911,3.9917,3.9913,3.9815,3.9814,3.9814,3.9837,0,0,0,0,0,0,4.0219,4.0204,4.012,4.0115,4.0164,4.0107,4.0097,4.008,4.0023,4.0015,4.0051,4.005,3.997,3.9962,3.9954,3.9914,3.9922,3.9918,3.9916,3.9815,3.9814,3.9813,0,0,0,0,0,0,4.0209,4.02,4.0118,4.0125,4.0121,4.0109,4.0101,4.0064,4.0023,4.0062,4.0059,4.0051,3.998,3.9963,3.9957,3.99,3.9926,3.9922,3.992,3.9919,3.9814,3.9814,0,0,0,0,0,0,4.0204,4.0197,4.0126,4.0123,4.0119,4.0062,4.0075,4.0014,4.0033,4.0065,4.0033,4.0034,3.9982,3.9975,3.9959,3.9906,3.9902,3.9926,3.9923,3.9922,3.9921,0,0,0,0,0,0,0,4.0201,4.026,4.015,4.0121,4.0118,4.007,4.0069,4.0067,4.0033,4.0033,4.0033,4.0034,3.9945,3.9941,3.9938,3.991,0,0,3.9926,3.9924,0,0,0,0,0,0,0,0,4.0262,4.0261,4.015,4.0149,4.0148,4.007,4.0069,4.0068,4.0033,4.0033,4.0033,4.0033,3.9944,3.9941,3.9938,0,0,0,0,0,0,0,0,0,0,0,0,0,0,0,4.015,4.0149,0,4.007,4.0069,4.0068,4.0033,4.0033,4.0033,4.0033,3.9943,3.9941,3.9938,0,0,0,0,0,0,0,0,0,0,0,0,0,0,0,0,0,0,0,0,0,0,0,0,0,0,0,0,0,0,0,0,0,0,0,0,0,0,0,0,0,0,0,0,0,0,0,0,0,0,0,0,0,0,0,0,0,0,0,0,0,0,0,0,0,0,0,0,0]}]]]